Location: Mount Tamalpais State Park
(37.9108°N, 122.6128°W)
Time: 22:59:06
(UTC-07:00)

Daily predictions for brighter satellites

Satellite Brightness Start Highest point End
(mag) Time Altitude Azimuth Time Altitude Azimuth Time Altitude Azimuth
ATLAS CENTAUR Rocket 4.4 20:07:50 10° WSW 20:14:02 53° S 20:55:32 10° ESE
ATLAS CENTAUR Rocket 4.4 20:07:49 10° WSW 20:14:02 53° S 20:55:33 10° ESE
ATLAS CENTAUR Rocket 4.4 20:07:49 10° WSW 20:14:03 53° S 20:55:32 10° ESE
ATLAS CENTAUR Rocket 4.4 20:07:50 10° WSW 20:14:03 53° S 20:55:32 10° ESE
ATLAS CENTAUR Rocket 4.4 20:07:50 10° WSW 20:14:03 53° S 20:55:33 10° ESE
ATLAS CENTAUR Rocket 4.4 20:07:49 10° WSW 20:14:03 53° S 20:55:33 10° ESE
Cosmos 1515 Rocket 4.1 20:59:34 10° N 21:03:47 41° E 21:07:56 10° SSE
Cosmos 371 Rocket 3.3 21:00:05 10° NNW 21:04:55 83° ENE 21:09:43 10° SSE
ALOS 2.8 21:02:57 10° S 21:07:34 63° W 21:12:13 10° NNW
Cosmos 2151 4.3 21:04:47 10° SE 21:07:57 21° E 21:11:07 10° NE
USA 229 DEB 3.7 21:03:05 10° SSW 21:09:58 76° ESE 21:16:58 10° NE
CZ-4 DEB 3.0 21:06:48 10° S 21:09:59 75° W 21:13:12 10° NNW
USA 229 3.7 21:03:12 10° SSW 21:10:05 76° ESE 21:17:04 10° NE
Tiangong 1 2.6 21:08:38 10° S 21:10:51 18° SE 21:13:05 10° E
Cosmos 968 Rocket 4.0 21:13:19 10° SSW 21:18:27 65° WNW 21:23:39 10° NNE
Cosmos 1441 Rocket 3.1 21:15:14 10° S 21:19:01 82° E 21:22:47 10° N
AVUM R/B 2.3 21:17:38 10° SSW 21:19:51 67° ESE 21:22:18 10° NNE
Cosmos 2219 3.9 21:17:20 10° SSE 21:22:22 32° ESE 21:27:26 10° NE
Cosmos 1151 Rocket 3.6 21:20:40 10° N 21:24:44 40° E 21:28:42 10° SSE
SPOT 5 3.5 21:23:11 10° SE 21:27:22 38° ENE 21:31:47 10° N
Cosmos 2058 4.3 21:25:16 11° SE 21:28:04 21° E 21:31:09 10° NE
PSLV R/B 4.5 21:27:00 13° SE 21:29:09 25° ENE 21:31:46 10° NNE
Cosmos 2266 Rocket 4.1 21:23:16 10° S 21:29:27 60° E 21:35:34 10° NNE
NOSS 3-1 (A) 4.3 21:25:26 10° SSE 21:30:00 24° ESE 21:34:53 10° ENE
Cosmos 2322 4.1 21:27:12 10° NNW 21:32:45 49° ENE 21:37:34 13° SE
Cosmos 1553 Rocket 4.3 21:27:57 10° N 21:34:20 76° W 21:40:36 10° S
Cosmos 1437 3.4 21:31:30 10° SSE 21:34:32 36° E 21:37:36 10° NNE
Cosmos 2322 Rocket 2.9 21:29:33 10° NNW 21:35:00 53° WSW 21:40:26 10° S
Envisat 3.0 21:36:53 10° SSE 21:41:56 75° ENE 21:47:01 10° N
Cosmos 1908 3.2 21:38:10 10° N 21:42:04 75° E 21:45:39 12° SSE
Cosmos 2360 Rocket 2.3 21:38:58 10° NNW 21:44:35 64° ENE 21:49:08 16° SE
Cosmos 304 Rocket 4.0 21:40:14 10° N 21:44:59 56° ENE 21:48:35 17° SE
ERS-1 Rocket 3.5 21:40:40 10° S 21:45:36 59° W 21:50:35 10° NNW
SL-16 R/B 3.1 21:40:27 10° NW 21:45:51 46° WSW 21:51:13 10° S
H-2A R/B 2.3 21:42:42 10° S 21:47:12 74° WSW 21:51:45 10° NNW
MetOp-B 4.3 21:47:14 15° SSE 21:51:33 57° ENE 21:56:47 10° N
Cosmos 1674 2.9 21:48:21 10° SSW 21:52:09 73° W 21:56:01 10° N
ATLAS 2AS CENTAUR R/B 4.2 21:50:45 15° ESE 21:52:41 17° ESE 21:57:10 10° ENE
Cosmos 2112 Rocket 4.2 21:49:51 10° N 21:55:01 57° ENE 21:58:39 19° SE
Cosmos 2298 Rocket 4.5 21:54:39 13° SSE 21:59:05 40° ESE 22:04:02 10° NNE
ATLAS CENTAUR R/B 4.0 21:57:42 10° W 21:59:30 12° WSW 22:01:16 10° SW
Cosmos 1939 Rocket 3.7 21:58:31 10° S 22:02:20 46° W 22:06:07 10° NNW
DELTA 2 R/B (1) 3.5 21:59:00 10° WNW 22:04:33 77° SSW 22:08:21 21° ESE
Cosmos 405 3.5 22:01:39 10° NNW 22:05:13 57° W 22:07:58 16° S
Cosmos 1300 3.3 22:01:56 10° N 22:05:33 38° E 22:07:01 27° SE
Cosmos 2227 Rocket 3.5 22:08:49 19° ESE 22:09:38 20° E 22:13:36 10° NE
YAOGAN 6 2.6 22:09:51 28° SSE 22:11:37 70° ENE 22:15:13 10° N
Nadezhda 2 Rocket 4.4 22:05:46 10° S 22:11:55 87° E 22:18:03 10° N
CZ-2C R/B 4.0 22:07:53 10° SSW 22:12:29 35° W 22:17:29 10° NNW
Cosmos 1437 Rocket 4.3 22:09:21 10° NNW 22:12:45 32° W 22:16:12 10° SSW
CZ-4 SHROUD 3.8 22:13:34 24° S 22:15:12 53° W 22:18:17 10° NNW
NOSS 3-1 (C) 3.3 22:10:58 10° SSW 22:16:44 77° ESE 22:23:07 10° NE
Terra 3.2 22:17:55 20° E 22:19:39 24° ENE 22:23:27 10° NNE
H-2A R/B 3.1 22:19:46 23° ESE 22:22:07 32° ENE 22:26:53 10° N
Cosmos 2333 Rocket 3.7 22:17:40 10° N 22:22:20 25° ENE 22:25:14 17° E
SL-23 DEB 3.8 22:17:44 10° NW 22:22:30 72° NE 22:23:46 37° ESE
Cosmos 1455 4.1 22:25:41 10° NE 22:28:08 16° ENE 22:28:13 16° ENE
DELTA 2 R/B(2) 4.0 22:26:36 10° W 22:28:23 56° N 22:28:41 50° NE
Delta 2 Rocket 2.8 22:25:28 10° W 22:28:55 59° S 22:29:16 55° SSE
Cosmos 1680 Rocket 4.0 22:26:41 10° NNW 22:31:48 54° WSW 22:35:03 22° S
CZ-4B R/B 3.7 22:27:38 10° N 22:32:55 75° WNW 22:37:47 12° SSW
SPOT 1/Viking Rocket 3.5 22:31:26 27° S 22:34:16 82° WSW 22:39:27 10° NNW
COSMOS 2428 2.7 22:28:39 10° NNW 22:34:22 79° ENE 22:37:03 33° SSE
OAO 2 Rocket 3.7 22:29:20 10° SW 22:34:24 44° SSE 22:36:15 32° ESE
Cosmos 2297 Rocket 3.4 22:36:45 23° ESE 22:36:46 23° E 22:41:09 10° NE
Cosmos 2242 Rocket 3.8 22:33:31 10° N 22:37:56 57° E 22:39:10 41° SE
CZ-4C R/B 3.3 22:38:19 47° E 22:38:38 49° ENE 22:41:59 10° N
CZ-4 R/B 3.8 22:35:44 10° NNE 22:40:42 86° WNW 22:43:44 23° SSW
Cosmos 1898 Rocket 3.4 22:39:32 18° SSW 22:43:25 89° WNW 22:48:39 10° NNE
ARGOS 3.2 22:41:19 31° S 22:44:02 81° WSW 22:49:29 10° NNW
Cosmos 2219 Rocket 2.6 22:40:47 10° N 22:46:12 48° ENE 22:48:13 34° ESE
USA 245 3.6 22:46:59 35° W 22:46:59 35° W 22:49:03 10° NNW
Tiangong 1 1.1 22:44:05 10° WSW 22:47:01 72° WNW 22:47:01 72° WNW
Cosmos 2150 Rocket 4.1 22:43:36 15° SSW 22:48:10 80° WNW 22:53:40 10° NNE
DELTA 2 DEB (DPAF) 4.1 22:47:23 47° SSE 22:48:37 75° ENE 22:53:07 10° N
Cosmos 1862 Rocket 4.5 22:45:10 10° NNE 22:49:04 32° ENE 22:49:24 31° E
CARTOSAT-1 3.9 22:48:24 42° ESE 22:49:10 48° ENE 22:53:20 10° N
Cosmos 858 Rocket 4.4 22:46:12 21° SSW 22:49:46 86° WNW 22:55:00 10° NNE
Sich 1 3.3 22:48:19 29° SSW 22:50:31 68° W 22:54:55 10° N
Cosmos 1726 2.4 22:47:55 10° NNW 22:51:41 65° W 22:52:27 50° SSW
SL-08 RB Rocket 3.7 22:51:00 42° S 22:52:27 74° WSW 22:56:57 10° NNW
Cosmos 1633 Rocket 3.3 22:50:59 31° SSW 22:53:00 67° W 22:57:22 10° N
Cosmos 2237 4.4 22:50:16 10° NNW 22:55:56 64° WSW 22:58:17 35° S
FALCON 9 R/B 3.9 22:29:22 10° W 22:57:51 76° S 23:03:13 21° E
Lacrosse 4 Rocket 4.0 22:57:36 10° NNE 22:59:22 12° NE 23:00:59 10° ENE
SL-14 R/B 4.5 22:59:26 23° SW 23:01:22 39° W 23:05:09 10° N
Cosmos 1703 3.2 23:00:50 61° SSW 23:01:26 77° W 23:05:21 10° N
Cosmos 1271 Rocket 2.6 22:57:58 10° N 23:01:49 84° W 23:02:06 75° SSW
Cosmos 1980 4.2 22:58:08 10° N 23:03:36 48° ENE 23:05:12 38° ESE
DMSP B5D2-2 3.9 23:03:00 10° NNE 23:08:14 76° ESE 23:09:38 49° S
Iridium 2 3.9 23:11:14 61° WSW 23:11:33 64° W 23:15:22 10° N
Cosmos 2333 4.5 23:09:26 10° NNW 23:15:05 60° WSW 23:16:50 42° SSW
ERBS 4.5 23:18:46 19° NE 23:18:46 19° NE 23:19:54 10° NE
Cosmos 2237 Rocket 2.5 23:10:51 10° NNW 23:16:29 57° ENE 23:17:50 46° ESE
Cosmos 2082 3.6 23:16:22 46° S 23:18:08 78° ESE 23:23:52 10° NNE
Meteor 1-4 Rocket 3.4 23:14:53 10° NNW 23:18:27 43° W 23:18:34 42° W
NOSS 3-1 (A) 4.2 23:14:41 10° SW 23:20:22 50° NW 23:26:42 10° NNE
Cosmos 2360 Rocket 4.4 23:24:43 10° WNW 23:27:58 16° W 23:30:54 11° SW
Cosmos 1626 2.6 23:30:01 60° NW 23:30:01 60° NW 23:33:20 10° N
COSMOS 2455 3.8 23:25:17 10° NNW 23:30:51 37° NE 23:32:42 30° E
Cosmos 1241 Rocket 4.5 23:28:21 26° SW 23:32:02 78° WNW 23:38:19 10° NNE
Cosmos 1933 4.4 23:29:26 10° N 23:32:31 36° NE 23:32:31 36° NE
IGS 5A 3.8 23:34:54 56° W 23:34:54 56° W 23:38:58 10° NNW
ATLAS 2AS CENTAUR R/B 2.9 23:38:04 28° SSW 23:42:30 89° ESE 23:50:35 10° NNE
Nadezhda 1 Rocket 4.3 23:38:59 10° NNW 23:44:55 56° W 23:46:43 41° SW
Okean 1-7 4.4 23:42:48 10° NNE 23:45:52 29° NE 23:45:52 29° NE
Cosmos 1703 Rocket 4.0 23:45:40 10° N 23:49:20 53° NE 23:49:20 53° NE
Cosmos 2227 Rocket 2.9 23:50:34 29° SW 23:53:13 51° WNW 23:58:44 10° NNE
